QPF
0.17 0.17 0.18 0.21 0.22 0.16 0.11 0.11 0.10 0.08 0.07 0.06 0.05 0.04 0.03 0.02 0.02 0.02 0.02 0.01 0.01 0.01 0.00 0.00 0.00 0.00 0.00 0.00 0.00 0.00 0.00 0.00 0.00 0.00 0.01 0.01 0.01 0.00 0.00 0.00 0.00 0.00 0.00
0.16 0.17 0.17 0.18 0.24 0.27 0.22 0.17 0.11 0.07 0.05 0.04 0.03 0.02 0.01 0.01 0.01 0.01 0.01 0.00 0.00 0.00 0.00 0.00 0.00 0.00 0.00 0.00 0.00 0.00 0.00 0.00 0.00 0.00 0.00 0.00 0.00 0.00 0.00 0.00 0.00 0.00 0.00
0.10 0.11 0.12 0.11 0.11 0.12 0.12 0.12 0.10 0.07 0.04 0.02 0.02 0.01 0.01 0.00 0.00 0.00 0.00 0.00 0.00 0.00 0.00 0.00 0.00 0.00 0.00 0.00 0.00 0.00 0.00 0.00 0.00 0.00 0.00 0.00 0.00 0.00 0.00 0.00 0.00 0.00 0.00
0.06 0.07 0.08 0.07 0.05 0.04 0.03 0.04 0.04 0.04 0.03 0.02 0.01 0.01 0.01 0.00 0.00 0.00 0.00 0.00 0.00 0.00 0.00 0.00 0.00 0.00 0.00 0.00 0.00 0.00 0.00 0.00 0.00 0.00 0.00 0.00 0.00 0.00 0.00 0.00 0.00 0.00 0.00
0.05 0.04 0.05 0.03 0.02 0.02 0.02 0.02 0.02 0.02 0.02 0.02 0.01 0.01 0.00 0.00 0.00 0.00 0.00 0.00 0.00 0.00 0.00 0.00 0.00 0.00 0.00 0.00 0.00 0.00 0.00 0.00 0.00 0.00 0.00 0.00 0.01 0.01 0.01 0.00 0.00 0.01 0.01
0.04 0.03 0.02 0.01 0.02 0.02 0.02 0.01 0.01 0.01 0.01 0.01 0.00 0.00 0.00 0.00 0.00 0.00 0.00 0.00 0.00 0.00 0.00 0.00 0.00 0.00 0.00 0.00 0.00 0.00 0.00 0.00 0.00 0.00 0.01 0.01 0.01 0.02 0.01 0.01 0.01 0.01 0.01
0.03 0.02 0.01 0.01 0.01 0.01 0.01 0.01 0.01 0.01 0.00 0.00 0.00 0.00 0.00 0.00 0.00 0.00 0.00 0.00 0.00 0.00 0.00 0.00 0.00 0.00 0.00 0.00 0.00 0.00 0.00 0.00 0.00 0.00 0.01 0.01 0.01 0.02 0.01 0.01 0.02 0.02 0.02
0.01 0.01 0.01 0.01 0.01 0.01 0.01 0.01 0.01 0.01 0.00 0.00 0.00 0.00 0.00 0.00 0.00 0.00 0.00 0.00 0.00 0.00 0.00 0.00 0.00 0.00 0.00 0.00 0.00 0.00 0.00 0.00 0.00 0.00 0.01 0.01 0.00 0.01 0.01 0.01 0.01 0.01 0.03
0.01 0.01 0.01 0.01 0.01 0.01 0.01 0.01 0.01 0.01 0.00 0.00 0.00 0.00 0.00 0.00 0.00 0.00 0.00 0.00 0.00 0.00 0.00 0.00 0.00 0.00 0.00 0.00 0.00 0.01 0.01 0.01 0.00 0.00 0.00 0.00 0.00 0.00 0.00 0.01 0.02 0.02 0.04
0.01 0.01 0.01 0.01 0.01 0.01 0.01 0.01 0.01 0.01 0.01 0.00 0.00 0.00 0.00 0.00 0.00 0.00 0.00 0.00 0.00 0.00 0.00 0.00 0.00 0.00 0.00 0.00 0.00 0.01 0.01 0.01 0.01 0.01 0.01 0.01 0.01 0.01 0.00 0.01 0.02 0.03 0.04
0.00 0.00 0.00 0.01 0.01 0.01 0.01 0.01 0.01 0.01 0.01 0.01 0.00 0.00 0.00 0.00 0.00 0.00 0.00 0.00 0.00 0.00 0.00 0.00 0.00 0.00 0.00 0.00 0.00 0.01 0.01 0.00 0.01 0.01 0.01 0.01 0.01 0.02 0.02 0.02 0.02 0.03 0.04
0.00 0.01 0.01 0.01 0.01 0.01 0.01 0.01 0.01 0.02 0.01 0.01 0.01 0.01 0.00 0.00 0.00 0.00 0.00 0.00 0.00 0.00 0.00 0.00 0.00 0.00 0.00 0.00 0.00 0.00 0.00 0.00 0.01 0.01 0.01 0.02 0.01 0.01 0.01 0.01 0.01 0.02 0.03
0.01 0.01 0.01 0.01 0.01 0.01 0.01 0.01 0.01 0.01 0.01 0.01 0.01 0.01 0.00 0.00 0.00 0.00 0.00 0.00 0.00 0.00 0.00 0.00 0.00 0.00 0.00 0.00 0.00 0.00 0.00 0.00 0.01 0.01 0.01 0.01 0.00 0.00 0.00 0.01 0.01 0.02 0.03
0.01 0.01 0.02 0.01 0.02 0.02 0.01 0.01 0.01 0.01 0.01 0.01 0.01 0.00 0.00 0.00 0.00 0.00 0.00 0.00 0.00 0.00 0.00 0.00 0.00 0.00 0.00 0.00 0.00 0.00 0.01 0.00 0.00 0.01 0.01 0.01 0.00 0.00 0.00 0.01 0.01 0.02 0.03
0.01 0.01 0.01 0.02 0.02 0.02 0.01 0.00 0.00 0.00 0.00 0.00 0.00 0.00 0.01 0.01 0.00 0.00 0.00 0.00 0.00 0.00 0.00 0.00 0.01 0.01 0.01 0.01 0.00 0.00 0.00 0.00 0.00 0.00 0.00 0.00 0.00 0.00 0.00 0.00 0.01 0.01 0.02
0.01 0.02 0.02 0.02 0.02 0.01 0.00 0.00 0.00 0.00 0.00 0.00 0.00 0.00 0.00 0.00 0.00 0.00 0.00 0.00 0.00 0.00 0.00 0.01 0.01 0.01 0.01 0.00 0.00 0.00 0.00 0.00 0.00 0.00 0.00 0.00 0.00 0.00 0.00 0.00 0.00 0.01 0.01
0.02 0.01 0.01 0.01 0.01 0.01 0.00 0.00 0.01 0.00 0.00 0.00 0.00 0.00 0.00 0.00 0.00 0.00 0.00 0.00 0.00 0.00 0.00 0.00 0.00 0.00 0.00 0.01 0.00 0.00 0.00 0.00 0.00 0.00 0.00 0.00 0.00 0.00 0.00 0.00 0.00 0.00 0.01
0.02 0.01 0.01 0.01 0.01 0.00 0.00 0.00 0.00 0.01 0.01 0.01 0.00 0.00 0.00 0.00 0.00 0.00 0.00 0.00 0.00 0.00 0.00 0.00 0.00 0.00 0.00 0.00 0.00 0.00 0.00 0.00 0.00 0.00 0.00 0.00 0.00 0.00 0.00 0.00 0.00 0.00 0.00
0.01 0.01 0.00 0.00 0.00 0.00 0.00 0.00 0.00 0.00 0.01 0.01 0.01 0.01 0.00 0.00 0.00 0.00 0.00 0.00 0.00 0.00 0.00 0.00 0.00 0.00 0.00 0.00 0.00 0.00 0.00 0.00 0.00 0.00 0.00 0.00 0.00 0.00 0.00 0.00 0.00 0.00 0.00
0.01 0.00 0.00 0.00 0.00 0.00 0.00 0.00 0.00 0.00 0.01 0.01 0.02 0.01 0.00 0.00 0.00 0.00 0.00 0.00 0.00 0.00 0.00 0.00 0.00 0.00 0.00 0.00 0.00 0.00 0.00 0.00 0.00 0.00 0.00 0.00 0.00 0.00 0.00 0.00 0.00 0.00 0.00
0.00 0.00 0.00 0.00 0.00 0.00 0.00 0.00 0.00 0.00 0.01 0.01 0.01 0.00 0.00 0.00 0.01 0.00 0.00 0.00 0.00 0.00 0.00 0.00 0.00 0.00 0.00 0.00 0.00 0.00 0.00 0.00 0.00 0.00 0.00 0.00 0.00 0.00 0.00 0.00 0.00 0.00 0.00
0.00 0.00 0.00 0.00 0.00 0.00 0.00 0.00 0.00 0.00 0.01 0.01 0.00 0.00 0.00 0.00 0.00 0.00 0.00 0.00 0.00 0.00 0.00 0.00 0.00 0.00 0.00 0.00 0.00 0.00 0.00 0.00 0.00 0.00 0.00 0.00 0.00 0.00 0.00 0.00 0.00 0.00 0.00
0.00 0.00 0.00 0.00 0.00 0.00 0.00 0.00 0.00 0.00 0.00 0.00 0.00 0.00 0.00 0.00 0.00 0.00 0.00 0.00 0.00 0.00 0.00 0.00 0.00 0.00 0.00 0.00 0.00 0.00 0.00 0.00 0.00 0.00 0.00 0.00 0.00 0.00 0.00 0.00 0.00 0.00 0.00
0.00 0.00 0.00 0.00 0.00 0.00 0.00 0.00 0.00 0.00 0.00 0.00 0.00 0.00 0.00 0.00 0.00 0.00 0.00 0.00 0.00 0.00 0.00 0.00 0.00 0.00 0.00 0.00 0.00 0.00 0.00 0.00 0.00 0.00 0.00 0.00 0.00 0.00 0.00 0.00 0.00 0.00 0.00
0.00 0.00 0.00 0.00 0.00 0.00 0.00 0.00 0.00 0.00 0.00 0.00 0.00 0.00 0.00 0.00 0.00 0.00 0.00 0.00 0.00 0.00 0.00 0.00 0.00 0.00 0.00 0.00 0.00 0.00 0.00 0.00 0.00 0.00 0.00 0.00 0.00 0.00 0.00 0.00 0.00 0.00 0.00
0.00 0.00 0.00 0.00 0.00 0.00 0.00 0.00 0.00 0.00 0.00 0.00 0.00 0.00 0.00 0.00 0.00 0.00 0.00 0.00 0.00 0.00 0.00 0.00 0.00 0.00 0.00 0.00 0.00 0.00 0.00 0.00 0.00 0.00 0.00 0.00 0.00 0.00 0.00 0.00 0.00 0.00 0.00
MSLP
1017.44 1018.10 1018.79 1019.51 1020.22 1020.91 1021.57 1022.17 1022.70 1023.14 1023.48 1023.72 1023.86 1023.93 1023.93 1023.91 1023.89 1023.90 1023.96 1024.07 1024.22 1024.39 1024.54 1024.65 1024.70 1024.66 1024.55 1024.38 1024.16 1023.92 1023.70 1023.52 1023.36 1023.26 1023.18 1023.12 1023.06 1022.99 1022.89 1022.77 1022.63 1022.48 1022.32
1018.75 1019.34 1019.95 1020.57 1021.18 1021.76 1022.30 1022.79 1023.23 1023.59 1023.87 1024.07 1024.18 1024.23 1024.24 1024.24 1024.24 1024.28 1024.37 1024.50 1024.67 1024.85 1025.02 1025.14 1025.19 1025.16 1025.05 1024.86 1024.63 1024.37 1024.12 1023.88 1023.68 1023.51 1023.37 1023.23 1023.10 1022.96 1022.79 1022.61 1022.42 1022.23 1022.04
1020.00 1020.51 1021.03 1021.54 1022.03 1022.50 1022.94 1023.35 1023.71 1024.02 1024.26 1024.44 1024.55 1024.61 1024.63 1024.64 1024.66 1024.70 1024.79 1024.92 1025.08 1025.26 1025.42 1025.54 1025.59 1025.57 1025.47 1025.29 1025.05 1024.79 1024.52 1024.26 1024.01 1023.80 1023.60 1023.41 1023.21 1023.00 1022.77 1022.53 1022.28 1022.03 1021.82
1021.09 1021.54 1021.96 1022.37 1022.76 1023.13 1023.48 1023.82 1024.14 1024.42 1024.66 1024.84 1024.97 1025.05 1025.09 1025.11 1025.13 1025.16 1025.23 1025.34 1025.47 1025.62 1025.76 1025.87 1025.92 1025.90 1025.80 1025.63 1025.41 1025.15 1024.87 1024.59 1024.32 1024.07 1023.83 1023.59 1023.35 1023.08 1022.80 1022.51 1022.21 1021.91 1021.65
1021.99 1022.36 1022.70 1023.01 1023.31 1023.60 1023.90 1024.20 1024.49 1024.78 1025.04 1025.25 1025.41 1025.52 1025.58 1025.61 1025.62 1025.64 1025.67 1025.73 1025.83 1025.93 1026.04 1026.12 1026.16 1026.14 1026.06 1025.90 1025.68 1025.43 1025.15 1024.86 1024.58 1024.30 1024.04 1023.77 1023.49 1023.19 1022.88 1022.54 1022.20 1021.86 1021.56
1022.65 1022.96 1023.22 1023.46 1023.68 1023.92 1024.18 1024.46 1024.76 1025.07 1025.36 1025.61 1025.82 1025.96 1026.05 1026.08 1026.08 1026.07 1026.07 1026.09 1026.13 1026.19 1026.27 1026.32 1026.35 1026.32 1026.24 1026.09 1025.88 1025.63 1025.35 1025.06 1024.76 1024.47 1024.19 1023.90 1023.61 1023.30 1022.96 1022.61 1022.24 1021.88 1021.53
1023.10 1023.34 1023.54 1023.72 1023.90 1024.10 1024.34 1024.62 1024.93 1025.27 1025.59 1025.89 1026.14 1026.32 1026.43 1026.47 1026.47 1026.44 1026.40 1026.38 1026.38 1026.40 1026.44 1026.48 1026.49 1026.46 1026.37 1026.23 1026.02 1025.77 1025.48 1025.18 1024.87 1024.57 1024.27 1023.98 1023.69 1023.38 1023.05 1022.69 1022.32 1021.94 1021.57
1023.36 1023.56 1023.72 1023.86 1024.00 1024.18 1024.41 1024.69 1025.02 1025.38 1025.74 1026.07 1026.36 1026.57 1026.70 1026.75 1026.75 1026.71 1026.65 1026.60 1026.58 1026.58 1026.59 1026.61 1026.61 1026.57 1026.48 1026.33 1026.12 1025.86 1025.56 1025.24 1024.92 1024.61 1024.30 1024.01 1023.72 1023.42 1023.11 1022.77 1022.41 1022.03 1021.65
1023.51 1023.67 1023.80 1023.92 1024.05 1024.22 1024.44 1024.72 1025.06 1025.43 1025.81 1026.17 1026.48 1026.71 1026.86 1026.93 1026.94 1026.90 1026.84 1026.78 1026.74 1026.72 1026.73 1026.73 1026.73 1026.68 1026.59 1026.43 1026.20 1025.93 1025.61 1025.27 1024.93 1024.59 1024.28 1023.99 1023.71 1023.43 1023.14 1022.83 1022.49 1022.13 1021.76
1023.62 1023.77 1023.89 1023.99 1024.11 1024.27 1024.48 1024.76 1025.10 1025.47 1025.86 1026.23 1026.55 1026.80 1026.97 1027.06 1027.08 1027.05 1027.00 1026.94 1026.90 1026.88 1026.88 1026.88 1026.86 1026.80 1026.69 1026.52 1026.28 1025.98 1025.63 1025.27 1024.90 1024.55 1024.22 1023.92 1023.65 1023.38 1023.11 1022.83 1022.53 1022.20 1021.85
1023.75 1023.90 1024.02 1024.12 1024.24 1024.39 1024.60 1024.87 1025.19 1025.56 1025.94 1026.31 1026.64 1026.90 1027.08 1027.19 1027.22 1027.21 1027.17 1027.13 1027.09 1027.07 1027.06 1027.04 1027.01 1026.93 1026.80 1026.60 1026.33 1026.01 1025.64 1025.25 1024.85 1024.48 1024.13 1023.82 1023.54 1023.28 1023.03 1022.77 1022.50 1022.20 1021.88
1023.95 1024.11 1024.24 1024.35 1024.46 1024.61 1024.81 1025.06 1025.37 1025.72 1026.09 1026.45 1026.78 1027.04 1027.24 1027.36 1027.42 1027.42 1027.40 1027.35 1027.31 1027.28 1027.25 1027.21 1027.15 1027.05 1026.88 1026.66 1026.36 1026.01 1025.61 1025.19 1024.77 1024.38 1024.01 1023.69 1023.40 1023.14 1022.89 1022.65 1022.39 1022.12 1021.83
1024.22 1024.40 1024.54 1024.65 1024.77 1024.92 1025.10 1025.34 1025.63 1025.97 1026.32 1026.67 1027.00 1027.27 1027.47 1027.60 1027.67 1027.68 1027.65 1027.61 1027.55 1027.49 1027.43 1027.35 1027.25 1027.11 1026.91 1026.65 1026.33 1025.95 1025.54 1025.11 1024.67 1024.26 1023.88 1023.53 1023.23 1022.96 1022.71 1022.47 1022.22 1021.96 1021.69
1024.53 1024.73 1024.88 1025.01 1025.13 1025.27 1025.45 1025.67 1025.95 1026.27 1026.61 1026.95 1027.27 1027.54 1027.74 1027.88 1027.95 1027.96 1027.92 1027.85 1027.76 1027.66 1027.55 1027.43 1027.28 1027.09 1026.86 1026.57 1026.23 1025.85 1025.43 1024.99 1024.55 1024.13 1023.74 1023.38 1023.07 1022.78 1022.51 1022.26 1022.01 1021.75 1021.48
1024.83 1025.05 1025.21 1025.35 1025.47 1025.61 1025.78 1025.99 1026.26 1026.56 1026.89 1027.23 1027.54 1027.81 1028.02 1028.15 1028.21 1028.20 1028.14 1028.03 1027.90 1027.75 1027.58 1027.40 1027.21 1026.98 1026.72 1026.42 1026.08 1025.70 1025.29 1024.86 1024.44 1024.02 1023.63 1023.27 1022.93 1022.63 1022.34 1022.06 1021.79 1021.52 1021.25
1025.07 1025.30 1025.47 1025.61 1025.73 1025.86 1026.03 1026.23 1026.49 1026.79 1027.11 1027.44 1027.76 1028.02 1028.22 1028.34 1028.39 1028.35 1028.26 1028.11 1027.92 1027.72 1027.50 1027.27 1027.04 1026.79 1026.51 1026.22 1025.89 1025.54 1025.16 1024.77 1024.37 1023.98 1023.59 1023.22 1022.88 1022.54 1022.23 1021.92 1021.62 1021.33 1021.04
1025.21 1025.44 1025.60 1025.74 1025.86 1025.98 1026.14 1026.35 1026.60 1026.89 1027.22 1027.55 1027.85 1028.11 1028.30 1028.41 1028.43 1028.37 1028.24 1028.05 1027.82 1027.57 1027.32 1027.06 1026.80 1026.55 1026.29 1026.02 1025.74 1025.43 1025.10 1024.76 1024.39 1024.02 1023.65 1023.28 1022.91 1022.55 1022.20 1021.86 1021.53 1021.20 1020.88
1025.22 1025.44 1025.60 1025.72 1025.83 1025.95 1026.11 1026.31 1026.56 1026.86 1027.18 1027.51 1027.81 1028.06 1028.24 1028.33 1028.33 1028.25 1028.09 1027.87 1027.62 1027.35 1027.07 1026.81 1026.57 1026.34 1026.12 1025.90 1025.67 1025.42 1025.15 1024.86 1024.53 1024.19 1023.82 1023.44 1023.05 1022.65 1022.26 1021.88 1021.51 1021.14 1020.80
1025.11 1025.31 1025.45 1025.56 1025.67 1025.79 1025.94 1026.14 1026.40 1026.69 1027.01 1027.34 1027.63 1027.88 1028.05 1028.13 1028.11 1028.01 1027.84 1027.61 1027.35 1027.09 1026.83 1026.60 1026.39 1026.21 1026.05 1025.90 1025.74 1025.56 1025.34 1025.09 1024.80 1024.46 1024.09 1023.68 1023.26 1022.83 1022.39 1021.96 1021.54 1021.15 1020.77
1024.91 1025.08 1025.20 1025.30 1025.40 1025.52 1025.68 1025.88 1026.13 1026.43 1026.75 1027.07 1027.36 1027.60 1027.76 1027.83 1027.81 1027.71 1027.54 1027.33 1027.09 1026.86 1026.64 1026.46 1026.32 1026.21 1026.13 1026.05 1025.96 1025.84 1025.67 1025.45 1025.16 1024.82 1024.42 1023.98 1023.51 1023.02 1022.53 1022.06 1021.60 1021.16 1020.76
1024.66 1024.80 1024.90 1024.99 1025.08 1025.20 1025.36 1025.57 1025.83 1026.13 1026.45 1026.76 1027.05 1027.28 1027.43 1027.50 1027.49 1027.40 1027.25 1027.07 1026.87 1026.69 1026.54 1026.44 1026.37 1026.35 1026.34 1026.34 1026.31 1026.23 1026.09 1025.88 1025.59 1025.22 1024.78 1024.28 1023.75 1023.20 1022.65 1022.12 1021.63 1021.16 1020.74
1024.38 1024.49 1024.58 1024.66 1024.76 1024.88 1025.05 1025.27 1025.53 1025.83 1026.15 1026.46 1026.73 1026.95 1027.11 1027.18 1027.18 1027.11 1027.00 1026.86 1026.72 1026.61 1026.54 1026.52 1026.54 1026.59 1026.66 1026.71 1026.73 1026.68 1026.56 1026.33 1026.01 1025.59 1025.09 1024.53 1023.93 1023.31 1022.71 1022.14 1021.60 1021.12 1020.69
1024.12 1024.21 1024.29 1024.37 1024.47 1024.61 1024.79 1025.01 1025.28 1025.57 1025.88 1026.18 1026.45 1026.66 1026.82 1026.90 1026.91 1026.87 1026.80 1026.71 1026.64 1026.60 1026.61 1026.67 1026.76 1026.88 1027.01 1027.11 1027.16 1027.12 1026.98 1026.73 1026.36 1025.89 1025.32 1024.69 1024.03 1023.35 1022.70 1022.09 1021.53 1021.04 1020.62
1023.89 1023.97 1024.05 1024.14 1024.24 1024.39 1024.57 1024.80 1025.07 1025.36 1025.66 1025.95 1026.20 1026.41 1026.56 1026.65 1026.68 1026.67 1026.64 1026.61 1026.60 1026.63 1026.71 1026.83 1026.99 1027.17 1027.34 1027.46 1027.52 1027.48 1027.32 1027.03 1026.62 1026.09 1025.47 1024.78 1024.07 1023.35 1022.66 1022.03 1021.46 1020.97 1020.56
1023.70 1023.78 1023.86 1023.96 1024.07 1024.23 1024.41 1024.64 1024.90 1025.18 1025.46 1025.74 1025.98 1026.18 1026.32 1026.42 1026.47 1026.50 1026.51 1026.52 1026.57 1026.65 1026.79 1026.96 1027.17 1027.38 1027.58 1027.72 1027.77 1027.72 1027.54 1027.23 1026.78 1026.21 1025.55 1024.83 1024.08 1023.35 1022.64 1022.01 1021.44 1020.97 1020.57
1023.56 1023.64 1023.73 1023.83 1023.95 1024.10 1024.29 1024.51 1024.75 1025.01 1025.28 1025.53 1025.76 1025.95 1026.09 1026.20 1026.27 1026.32 1026.37 1026.43 1026.52 1026.64 1026.82 1027.03 1027.27 1027.50 1027.71 1027.86 1027.91 1027.85 1027.66 1027.33 1026.87 1026.28 1025.62 1024.89 1024.14 1023.40 1022.71 1022.09 1021.54 1021.08 1020.71
Thickness
5625 5624 5623 5621 5618 5617 5614 5611 5608 5606 5604 5604 5602 5601 5600 5599 5598 5597 5596 5595 5593 5590 5588 5586 5583 5581 5581 5580 5578 5576 5573 5570 5567 5563 5558 5553 5546 5543 5541 5538 5536 5533 5532
5609 5609 5607 5606 5605 5603 5600 5597 5595 5594 5592 5592 5592 5591 5590 5588 5587 5586 5585 5583 5581 5579 5576 5574 5571 5569 5566 5565 5563 5561 5558 5553 5553 5548 5546 5544 5538 5534 5530 5527 5527 5525 5521
5596 5595 5594 5592 5591 5589 5586 5585 5583 5582 5581 5581 5581 5580 5578 5577 5575 5574 5573 5571 5569 5566 5564 5561 5558 5556 5554 5552 5550 5548 5547 5544 5540 5539 5537 5533 5530 5526 5522 5522 5520 5515 5514
5583 5582 5580 5578 5577 5575 5574 5572 5572 5571 5570 5569 5569 5568 5567 5566 5565 5563 5561 5559 5557 5554 5551 5548 5546 5543 5541 5539 5538 5536 5534 5533 5531 5531 5529 5526 5523 5519 5516 5515 5513 5510 5508
5571 5570 5567 5565 5564 5563 5562 5561 5560 5560 5559 5558 5558 5557 5556 5554 5552 5551 5550 5548 5545 5542 5540 5537 5532 5528 5523 5524 5525 5524 5524 5524 5525 5523 5521 5519 5514 5510 5508 5505 5504 5502 5501
5559 5557 5556 5554 5553 5552 5551 5550 5549 5548 5548 5547 5547 5546 5544 5541 5535 5535 5536 5537 5534 5532 5530 5527 5524 5520 5515 5512 5510 5509 5507 5510 5511 5511 5512 5507 5504 5502 5498 5497 5496 5495 5494
5548 5547 5546 5545 5544 5543 5543 5541 5539 5538 5537 5536 5536 5535 5531 5525 5522 5522 5522 5526 5524 5521 5519 5518 5517 5513 5510 5509 5506 5502 5501 5498 5495 5496 5499 5496 5495 5493 5489 5491 5489 5488 5486
5539 5538 5537 5536 5535 5534 5533 5531 5530 5529 5527 5526 5525 5524 5520 5514 5511 5511 5511 5515 5515 5512 5510 5508 5507 5504 5501 5498 5501 5502 5500 5498 5493 5491 5490 5489 5488 5484 5483 5483 5482 5483 5484
5531 5530 5529 5529 5528 5527 5525 5523 5521 5520 5518 5517 5516 5514 5511 5505 5502 5502 5501 5509 5508 5505 5503 5499 5498 5497 5489 5488 5493 5495 5495 5493 5488 5485 5483 5482 5479 5478 5476 5479 5483 5484 5484
5524 5524 5523 5522 5521 5519 5517 5515 5514 5512 5511 5510 5507 5505 5503 5499 5493 5494 5494 5504 5502 5501 5498 5494 5487 5486 5483 5482 5487 5489 5488 5487 5486 5486 5483 5481 5480 5479 5475 5474 5478 5480 5480
5518 5517 5515 5514 5512 5511 5509 5507 5506 5506 5504 5502 5499 5497 5494 5490 5487 5486 5487 5493 5496 5496 5496 5493 5485 5479 5477 5477 5477 5480 5477 5476 5481 5483 5483 5483 5482 5480 5479 5477 5475 5474 5475
5511 5509 5508 5507 5507 5504 5502 5500 5499 5498 5497 5495 5493 5492 5490 5486 5482 5480 5480 5480 5480 5486 5487 5486 5479 5473 5472 5471 5473 5471 5472 5472 5479 5480 5480 5479 5479 5479 5477 5475 5473 5472 5470
5504 5502 5500 5499 5498 5497 5496 5494 5493 5492 5494 5493 5491 5490 5489 5485 5479 5476 5475 5475 5475 5478 5478 5471 5470 5469 5468 5470 5467 5468 5470 5474 5475 5476 5475 5476 5476 5475 5474 5474 5474 5472 5471
5497 5496 5494 5493 5491 5489 5490 5490 5489 5488 5487 5487 5486 5485 5484 5482 5480 5478 5478 5476 5472 5474 5474 5470 5466 5466 5467 5466 5468 5470 5470 5469 5468 5471 5472 5473 5473 5474 5475 5475 5475 5474 5474
5492 5491 5490 5489 5486 5483 5482 5478 5479 5475 5474 5476 5478 5479 5478 5477 5467 5463 5464 5470 5469 5469 5468 5472 5471 5470 5470 5469 5468 5467 5466 5467 5467 5467 5469 5470 5472 5473 5473 5473 5473 5474 5473
5487 5486 5485 5484 5482 5481 5478 5473 5464 5464 5462 5462 5461 5463 5464 5461 5459 5459 5459 5459 5460 5460 5463 5469 5467 5467 5466 5465 5465 5465 5464 5463 5463 5464 5466 5467 5468 5470 5471 5473 5473 5473 5473
5483 5482 5482 5481 5479 5477 5476 5473 5468 5460 5457 5456 5456 5456 5456 5456 5456 5455 5455 5456 5457 5457 5464 5465 5463 5462 5461 5460 5460 5460 5459 5459 5458 5461 5463 5464 5466 5468 5469 5471 5472 5472 5473
5480 5477 5477 5477 5476 5475 5473 5472 5471 5468 5465 5461 5455 5454 5453 5453 5453 5453 5454 5454 5461 5461 5463 5461 5459 5457 5456 5455 5455 5454 5454 5455 5457 5458 5460 5461 5463 5465 5467 5469 5471 5470 5472
5479 5478 5476 5475 5474 5472 5471 5470 5469 5467 5466 5464 5462 5456 5453 5452 5452 5453 5454 5460 5462 5461 5459 5457 5455 5453 5452 5451 5451 5450 5450 5452 5453 5454 5457 5458 5461 5463 5465 5468 5470 5470 5471
5477 5471 5472 5474 5473 5471 5470 5468 5467 5466 5465 5464 5462 5461 5459 5459 5460 5459 5458 5459 5459 5458 5455 5454 5452 5449 5448 5448 5448 5449 5450 5451 5451 5454 5455 5456 5459 5461 5464 5467 5470 5473 5475
5480 5475 5469 5473 5473 5472 5470 5469 5467 5466 5465 5464 5463 5459 5453 5461 5461 5459 5459 5457 5456 5454 5452 5450 5450 5448 5446 5446 5446 5445 5446 5448 5449 5450 5452 5455 5458 5461 5464 5468 5471 5474 5476
5482 5480 5478 5477 5475 5473 5471 5469 5468 5467 5465 5464 5463 5460 5454 5459 5461 5460 5459 5456 5454 5451 5449 5446 5447 5446 5443 5442 5441 5442 5444 5446 5446 5446 5449 5453 5457 5461 5465 5468 5471 5474 5477
5484 5482 5480 5478 5476 5470 5471 5471 5469 5468 5467 5466 5465 5464 5463 5462 5461 5460 5458 5456 5453 5450 5448 5446 5445 5444 5441 5439 5439 5439 5441 5441 5441 5442 5446 5451 5457 5461 5466 5469 5472 5475 5478
5488 5486 5484 5482 5479 5477 5475 5473 5472 5470 5469 5467 5466 5465 5464 5462 5461 5459 5458 5455 5453 5451 5448 5446 5443 5441 5439 5439 5439 5440 5438 5437 5438 5442 5445 5450 5457 5462 5467 5470 5474 5477 5479
5492 5490 5488 5486 5484 5481 5479 5477 5475 5473 5472 5470 5469 5468 5466 5465 5463 5461 5459 5457 5454 5452 5449 5447 5445 5443 5441 5440 5439 5439 5438 5439 5440 5443 5446 5453 5460 5464 5468 5472 5476 5478 5480
5497 5495 5492 5490 5488 5486 5483 5480 5479 5477 5475 5473 5472 5470 5469 5467 5466 5464 5461 5459 5457 5455 5451 5450 5447 5445 5443 5443 5441 5440 5441 5443 5445 5448 5450 5457 5464 5467 5468 5474 5477 5480 5480